GFSFLT2_sfc_wetblb_258.txt.gz
Wetbulb
43.46 44.68 44.63 45.96 44.07 44.31 44.49 43.97 45.75 49.39 50.27 49.67 48.70 48.89 48.13 47.49 46.93 46.82 47.41 47.15 46.98 47.62 48.30 49.17 49.74 50.04 50.11
43.22 43.84 42.96 42.82 42.22 41.32 41.73 42.13 42.55 46.10 47.86 47.67 47.89 46.50 45.97 45.57 44.97 45.09 45.07 44.95 45.22 45.03 45.19 45.72 46.31 46.94 47.30
41.66 43.60 41.30 41.51 39.61 38.99 38.79 39.47 40.50 42.65 44.38 45.86 45.47 45.07 44.12 43.68 43.26 43.19 43.46 44.08 43.24 42.36 41.99 42.13 42.60 43.31 43.80
40.16 40.01 39.39 39.18 39.11 37.80 36.26 36.55 36.57 39.10 40.96 42.49 42.14 42.38 42.09 41.66 41.24 40.93 41.82 41.35 41.46 41.14 40.46 39.94 39.84 40.41 41.14
38.60 37.17 35.92 36.32 35.99 36.52 34.98 35.04 35.12 35.56 36.72 37.26 37.53 37.06 37.12 38.31 40.31 40.88 40.31 39.70 39.65 39.16 38.92 38.82 38.56 38.49 38.81
36.09 35.29 35.40 35.86 36.87 35.54 34.34 33.19 32.12 32.71 34.04 31.55 31.57 30.43 32.41 38.53 40.70 40.06 38.97 38.29 37.64 37.47 37.37 37.29 37.11 36.99 37.15
33.84 31.80 32.00 30.87 30.74 28.96 29.43 27.94 24.12 24.10 27.34 24.00 27.41 28.34 29.83 33.52 38.29 38.29 37.33 36.60 36.53 36.22 36.21 36.31 36.19 36.19 35.26
30.02 29.50 29.39 29.40 30.63 29.34 27.19 22.63 23.98 24.27 25.94 25.47 23.41 24.35 27.33 28.88 36.93 36.63 35.41 35.56 35.61 35.33 35.45 35.40 35.30 35.48 34.37
35.45 35.21 34.93 34.95 33.13 29.63 27.09 25.46 24.32 24.53 23.96 24.58 25.27 25.43 25.23 26.09 28.31 35.19 34.58 34.72 34.10 33.93 33.98 34.09 34.25 33.88 29.17
26.87 27.58 27.90 28.84 30.36 25.91 26.71 24.27 24.00 21.65 24.00 22.74 24.72 24.34 21.79 26.34 26.13 24.84 25.02 31.72 32.17 32.47 32.69 32.93 33.24 27.44 25.68
25.49 24.48 25.16 25.91 25.11 24.86 24.31 25.53 21.77 20.69 23.70 20.44 19.68 20.84 17.32 21.01 24.45 23.97 23.74 23.81 24.25 25.52 30.02 30.84 31.90 30.65 25.48
25.33 23.86 23.94 24.30 25.20 24.77 24.48 24.53 24.79 23.80 24.16 23.44 10.22 14.84 7.92 11.90 17.75 23.91 23.29 23.13 23.32 23.57 23.97 27.31 28.92 29.75 31.00
25.21 24.16 24.13 24.33 25.63 25.55 25.55 25.52 25.27 25.75 26.00 24.59 18.79 19.41 13.45 8.75 14.02 17.57 21.73 23.16 23.12 21.09 22.36 22.85 22.73 23.32 22.85
24.90 24.40 24.65 24.36 23.52 24.22 20.65 22.35 19.56 21.02 24.86 24.84 23.00 19.78 9.28 15.48 14.91 13.62 18.78 13.73 21.77 21.39 22.38 22.41 23.01 23.59 23.25
23.44 23.46 24.04 24.30 23.82 22.66 19.40 16.86 12.52 14.08 16.42 19.73 20.56 20.66 19.61 12.26 9.93 15.85 16.93 16.87 18.82 20.01 19.73 20.24 21.63 22.64 22.69
22.53 23.19 22.83 21.29 20.80 19.06 16.94 13.38 12.64 14.29 12.84 13.64 12.80 10.40 12.38 15.45 22.87 21.52 19.60 15.00 18.22 19.39 19.76 14.89 17.91 21.90 23.14
21.28 21.44 20.57 19.41 18.66 16.24 17.76 16.64 13.98 16.55 11.31 10.84 4.53 2.65 -1.16 3.76 16.52 25.13 12.70 14.12 14.66 15.79 17.32 16.74 19.15 21.46 23.15

GFSFLT2_sfc_wetblb_264.txt.gz
Wetbulb
41.86 44.10 45.38 43.02 42.90 43.02 43.89 42.87 44.78 49.33 50.18 49.80 49.71 48.55 47.75 47.13 46.99 46.82 46.66 46.86 46.65 46.44 46.47 47.19 47.52 47.39 47.85
41.72 43.01 42.93 42.55 42.09 41.34 41.64 41.85 42.48 47.16 49.07 48.44 47.68 46.66 46.32 46.17 45.41 45.39 45.08 44.01 43.22 43.00 42.91 43.39 44.00 44.38 44.93
41.32 43.21 41.62 41.24 39.35 39.11 38.98 39.41 40.54 43.19 45.13 46.68 46.02 45.35 44.73 43.89 44.42 43.61 43.25 42.70 42.07 40.82 40.67 40.69 41.01 41.67 42.24
40.66 40.04 39.85 39.31 39.66 37.71 36.19 36.94 36.74 39.32 41.50 42.35 42.25 42.92 42.88 42.54 42.30 41.49 40.99 40.57 39.96 39.49 39.46 39.14 39.15 39.60 39.83
38.82 37.67 36.60 36.64 36.68 36.99 35.30 35.13 33.47 33.51 36.49 35.85 36.98 36.92 37.73 39.91 40.63 40.41 39.80 38.90 38.28 38.22 38.50 38.61 38.27 38.27 38.14
37.02 36.13 35.75 36.54 36.87 36.02 34.66 33.48 31.99 30.53 33.79 31.92 31.55 30.72 31.36 37.10 40.12 39.61 38.71 37.47 37.37 37.19 37.40 37.36 37.05 37.18 37.06
35.83 35.25 34.21 34.26 34.11 33.53 33.02 31.71 27.70 23.54 26.93 24.27 25.92 27.99 29.37 31.48 38.38 38.29 36.76 36.29 36.28 36.02 35.83 35.73 35.66 35.87 35.80
32.60 31.13 29.60 29.12 29.43 28.82 27.61 22.35 24.17 24.76 25.67 23.48 23.29 23.89 25.62 27.23 36.50 35.96 35.74 35.76 35.19 34.90 34.70 34.56 34.56 34.83 34.08
35.89 36.37 36.78 35.57 31.47 28.51 26.03 26.01 25.22 24.14 23.74 24.71 24.56 24.87 25.42 25.51 26.64 33.58 34.37 34.06 33.88 33.19 33.16 33.21 33.42 33.28 28.76
25.37 26.59 26.65 28.87 30.40 27.38 27.70 24.18 23.05 21.12 23.43 22.07 23.45 22.98 20.40 25.61 24.14 24.49 24.46 31.28 31.19 31.28 31.83 32.21 32.58 26.92 25.68
24.93 24.57 24.94 24.43 24.30 24.61 24.60 25.60 21.26 19.54 22.85 20.54 18.70 19.10 15.63 18.70 22.59 24.14 23.47 23.46 23.59 24.90 28.80 30.01 31.43 29.87 25.12
24.43 23.31 23.96 24.24 24.19 24.66 24.98 24.49 24.27 22.93 23.29 22.34 9.96 13.95 7.99 9.81 16.83 22.80 22.97 22.77 23.01 22.58 22.90 26.29 28.05 28.59 29.75
24.75 23.83 24.00 24.68 25.31 24.52 25.10 25.11 24.46 24.48 24.82 23.36 18.25 18.96 12.21 9.82 12.18 16.31 19.15 21.65 22.50 19.68 21.06 21.79 21.88 22.51 21.60
25.14 24.39 24.75 23.91 22.51 22.81 19.33 20.18 16.66 18.68 23.03 23.47 21.50 17.71 8.93 14.94 15.54 13.12 17.96 13.23 20.35 19.19 20.08 20.78 21.95 22.88 22.36
24.11 23.36 23.57 23.60 22.22 20.22 18.08 14.13 9.89 11.86 14.52 18.09 18.47 19.57 18.39 12.43 8.75 15.42 15.63 15.47 17.11 17.68 17.89 17.87 20.27 21.86 22.11
23.73 23.36 22.35 19.59 17.27 16.09 14.78 10.29 9.33 11.94 10.94 12.39 11.56 9.03 12.60 16.12 21.64 14.71 13.92 13.81 15.90 17.39 18.03 13.01 16.72 21.01 22.41
22.46 20.73 18.75 14.67 15.70 12.62 13.85 12.04 11.03 11.41 10.49 9.27 6.14 4.00 0.91 3.29 15.17 23.90 12.50 12.52 13.17 14.34 15.82 14.81 14.07 20.33 21.93

GFSFLT2_sfc_wetblb_270.txt.gz
Wetbulb
46.57 47.08 46.66 46.30 46.73 47.33 47.36 48.09 49.43 50.09 50.40 50.23 49.36 49.01 48.44 48.08 48.44 47.57 46.52 46.06 45.94 45.97 45.84 46.00 46.14 46.36 46.76
45.00 44.78 45.01 45.87 45.52 44.58 43.37 44.39 45.65 49.06 49.83 49.27 48.32 48.02 46.95 46.77 46.52 45.23 44.11 43.20 42.89 42.99 43.07 43.30 43.51 43.50 43.89
43.94 44.62 43.02 42.56 41.17 41.48 41.65 41.29 41.99 44.47 47.47 47.55 46.86 46.55 46.77 46.18 44.91 43.47 42.45 41.71 41.07 40.66 40.72 40.88 41.28 41.78 42.04
43.65 42.19 41.88 41.88 42.05 39.66 38.85 39.07 38.09 39.60 41.51 43.88 44.47 44.72 45.09 43.84 42.27 40.88 40.27 39.95 39.72 39.89 39.78 39.28 39.24 39.65 39.88
41.86 40.48 39.29 39.00 39.24 40.13 38.49 36.11 34.05 34.47 36.23 35.68 38.31 38.74 40.83 41.52 40.55 39.98 39.21 38.49 38.45 38.56 38.40 38.20 37.83 37.82 37.89
40.25 39.38 38.87 38.84 38.60 38.67 36.27 34.65 33.32 32.79 35.64 33.85 35.76 36.50 38.90 40.26 40.23 39.16 38.05 37.50 37.44 37.11 36.99 36.85 36.53 36.51 36.45
40.08 40.18 38.37 38.69 38.62 36.82 35.47 33.92 32.66 31.91 34.93 33.73 35.86 35.88 37.71 38.51 38.91 37.88 36.67 36.69 36.43 36.00 35.47 35.19 35.09 35.44 35.12
41.07 38.41 37.09 36.41 37.28 36.67 34.09 30.34 31.24 32.23 34.80 33.69 34.57 34.67 35.83 37.64 37.33 36.71 36.41 36.08 34.90 34.27 34.13 34.24 34.31 34.51 33.59
37.77 37.59 36.66 36.48 37.73 36.97 33.87 33.25 31.23 30.64 31.15 33.50 33.12 33.17 34.41 35.02 35.04 35.23 34.82 34.24 33.10 32.85 32.94 33.15 33.62 33.91 33.23
31.97 33.49 34.19 33.84 34.77 36.62 35.28 33.66 31.27 29.03 29.67 30.51 30.07 30.95 29.36 32.98 33.14 33.36 33.69 30.94 30.49 31.01 31.38 31.72 32.61 32.76 32.73
29.57 29.90 30.34 30.45 30.85 31.62 32.54 33.82 31.52 28.02 28.91 30.22 28.78 27.36 29.16 28.67 30.88 31.37 31.04 30.74 30.69 30.57 30.57 30.54 31.22 30.84 30.65
29.40 28.74 28.46 28.13 28.77 29.06 29.08 28.84 29.10 27.79 27.96 28.40 28.37 28.40 28.03 26.01 26.19 28.55 29.79 30.25 29.65 28.92 29.39 30.21 30.11 29.71 29.66
28.09 28.02 28.52 28.91 28.54 28.05 27.92 27.90 27.33 27.25 26.96 27.63 28.70 26.73 28.23 27.17 26.15 26.17 26.67 27.87 28.78 28.05 28.67 28.66 28.32 28.79 27.70
28.55 28.32 28.22 28.18 27.66 28.18 26.69 26.43 26.66 25.28 25.84 26.03 26.55 27.39 26.97 26.71 27.37 26.18 26.01 26.01 27.22 27.62 27.06 28.31 29.07 29.37 28.79
28.02 27.36 27.01 27.16 26.44 27.18 26.34 26.03 26.25 25.34 24.91 25.04 25.18 26.20 26.60 26.85 26.02 25.61 25.11 25.63 26.52 26.07 26.12 26.20 28.44 28.95 28.52
28.92 28.42 27.59 27.28 25.97 25.74 26.08 26.10 24.93 24.32 24.45 24.58 25.21 25.39 25.65 24.99 26.14 25.04 25.22 25.00 26.10 26.18 25.77 24.69 26.01 28.81 28.90
29.87 29.57 28.50 27.25 26.05 25.33 24.75 24.66 24.00 23.80 23.32 24.47 25.08 24.52 22.95 22.01 23.69 25.42 24.65 25.57 25.25 25.88 26.00 25.39 24.51 26.17 27.33

GFSFLT2_sfc_wetblb_276.txt.gz
Wetbulb
43.55 44.47 46.23 45.59 46.11 45.86 46.43 46.27 46.82 50.85 51.19 51.26 50.56 50.09 50.10 48.74 47.74 47.34 46.73 46.83 46.69 46.89 46.83 46.52 46.64 46.87 47.10
43.49 44.73 44.92 45.71 44.69 43.31 43.80 43.98 44.27 48.82 50.67 49.85 49.32 49.44 48.20 46.78 45.68 44.84 44.11 43.82 43.70 43.77 43.93 44.17 44.17 44.38 44.67
42.88 44.42 43.38 43.70 41.77 41.96 41.37 40.72 41.28 45.77 49.12 49.36 48.62 48.56 46.79 45.58 44.43 43.37 42.70 42.12 41.68 41.18 41.15 41.23 41.59 41.99 42.37
42.94 41.95 41.22 41.79 41.16 39.16 37.68 37.44 37.62 39.47 42.62 46.21 47.16 46.01 45.10 43.85 42.39 41.34 41.19 41.02 40.71 40.31 39.59 39.09 39.13 39.61 39.91
40.98 39.96 38.84 39.14 38.62 39.64 36.79 35.16 34.64 36.26 36.82 36.83 40.30 40.65 40.46 40.87 40.22 40.02 39.94 39.60 39.24 38.96 38.50 37.93 37.63 37.78 37.53
39.99 38.93 38.70 39.41 39.71 38.24 35.29 34.05 32.41 34.99 35.52 34.34 37.55 36.94 38.36 38.82 40.00 39.35 39.07 38.57 38.01 37.16 36.73 36.49 36.46 36.48 35.84
39.16 39.55 38.58 39.22 38.97 36.05 35.22 34.26 32.39 32.74 34.36 32.16 36.14 35.03 37.00 38.59 39.34 38.69 38.36 37.41 36.43 35.83 35.40 35.19 35.19 35.22 34.38
39.71 39.32 39.47 39.45 38.99 36.95 34.92 31.77 32.17 33.16 34.55 31.19 34.76 33.25 34.54 35.35 38.30 37.84 37.37 35.94 35.01 34.35 33.90 33.79 33.99 34.32 33.55
40.28 40.79 40.94 40.37 37.57 35.20 32.39 31.95 29.47 29.49 29.97 30.36 31.58 29.84 32.02 32.20 33.91 36.56 35.92 34.42 33.11 32.56 32.67 32.95 33.50 33.31 29.73
31.70 32.87 33.67 35.58 36.71 36.02 34.40 31.35 27.39 24.82 26.00 26.29 27.24 27.10 24.64 29.47 28.56 29.80 28.47 31.75 31.28 31.76 32.15 32.62 32.63 26.11 25.12
29.70 29.22 29.13 28.87 28.34 28.01 28.06 29.88 25.80 23.54 26.26 25.58 22.66 22.84 22.24 24.07 25.68 25.60 24.74 24.89 24.47 25.76 30.77 32.06 31.84 29.64 24.17
27.71 26.92 26.48 26.16 26.11 25.92 25.70 25.42 25.88 25.15 25.51 27.01 16.73 20.40 15.67 16.42 20.89 23.81 23.38 23.53 23.79 24.01 24.53 28.76 30.40 31.25 31.13
26.61 26.46 26.47 26.15 26.32 25.47 25.28 24.95 24.53 24.88 25.71 25.85 22.09 22.88 19.09 15.13 17.03 20.27 21.94 23.08 23.62 22.77 22.88 23.58 23.59 23.85 23.49
26.49 26.36 27.27 27.13 26.01 26.54 24.16 23.81 21.29 21.50 24.67 25.64 25.24 22.89 16.11 19.66 18.94 17.43 20.87 15.61 22.32 22.01 21.79 23.39 24.70 24.39 23.95
26.29 26.31 26.69 26.42 25.88 25.28 23.54 21.52 15.73 15.75 17.29 21.24 23.06 24.45 23.02 18.79 16.04 19.11 19.04 18.77 20.11 20.52 20.77 20.54 23.52 24.32 23.93
27.18 26.91 26.02 24.43 24.12 23.46 22.39 17.93 18.37 16.86 14.99 16.45 17.56 15.52 17.80 20.72 25.40 17.67 16.70 17.22 19.27 21.18 22.00 16.13 19.50 23.51 24.30
27.35 26.91 25.82 23.86 23.32 21.10 20.56 20.04 17.65 15.35 14.47 14.55 12.56 10.32 7.90 9.97 18.67 25.85 13.87 16.37 16.57 17.30 20.77 19.93 16.82 21.99 23.50